| time (UTC) | temp F | wind direction | speed MPH | gust MPH | rain 1hr in | rain 24hr in | rain mn in | humidity % | barometer mb |
| 20260504151016 | 64 | 235 | 3.0 | 5.0 | 0.00 | 0.00 | 0.00 | 33 | 1011.0 |
| 20260504150517 | 63 | 295 | 2.0 | 6.0 | 0.00 | 0.00 | 0.00 | 35 | 1011.0 |
| 20260504141017 | 57 | 313 | 2.0 | 5.0 | 0.00 | 0.00 | 0.00 | 46 | 1012.0 |
| 20260504140516 | 57 | 182 | 4.0 | 5.0 | 0.00 | 0.00 | 0.00 | 46 | 1012.0 |
| 20260504130516 | 52 | 122 | 2.0 | 6.0 | 0.00 | 0.00 | 0.00 | 48 | 1013.0 |
| 20260504110517 | 47 | 165 | 4.0 | 5.0 | 0.00 | 0.00 | 0.00 | 52 | 1013.0 |
| 20260504100516 | 47 | 200 | 2.0 | 4.0 | 0.00 | 0.00 | 0.00 | 51 | 1013.0 |
| 20260504081518 | 49 | 198 | 0.0 | 4.0 | 0.00 | 0.00 | 0.00 | 46 | 1012.0 |
| 20260504081016 | 49 | 124 | 0.0 | 3.0 | 0.00 | 0.00 | 0.00 | 46 | 1012.0 |
| 20260504080516 | 49 | 257 | 0.0 | 5.0 | 0.00 | 0.00 | 0.00 | 46 | 1012.0 |
| 20260504050516 | 49 | 177 | 0.0 | 3.0 | 0.00 | 0.00 | 0.00 | 46 | 1012.0 |
| 20260504050016 | 49 | 188 | 1.0 | 3.0 | 0.00 | 0.00 | 0.00 | 45 | 1012.0 |
| 20260504045518 | 50 | 302 | 0.0 | 3.0 | 0.00 | 0.00 | 0.00 | 45 | 1012.0 |
| 20260504045016 | 50 | 300 | 2.0 | 3.0 | 0.00 | 0.00 | 0.00 | 45 | 1012.0 |
| 20260504044518 | 50 | 240 | 3.0 | 5.0 | 0.00 | 0.00 | 0.00 | 45 | 1012.0 |
| 20260504044016 | 50 | 262 | 1.0 | 2.0 | 0.00 | 0.00 | 0.00 | 44 | 1012.0 |
| 20260504043517 | 49 | 308 | 1.0 | 5.0 | 0.00 | 0.00 | 0.00 | 44 | 1012.0 |
| 20260504043018 | 50 | 249 | 2.0 | 4.0 | 0.00 | 0.00 | 0.00 | 44 | 1012.0 |
| 20260504042517 | 50 | 125 | 1.0 | 4.0 | 0.00 | 0.00 | 0.00 | 44 | 1012.0 |
| 20260504042017 | 50 | 144 | 2.0 | 5.0 | 0.00 | 0.00 | 0.00 | 44 | 1012.0 |
| 20260504041516 | 50 | 154 | 1.0 | 3.0 | 0.00 | 0.00 | 0.00 | 44 | 1012.0 |
| 20260504041017 | 50 | 185 | 1.0 | 3.0 | 0.00 | 0.00 | 0.00 | 45 | 1012.0 |
| 20260504040516 | 50 | 189 | 0.0 | 3.0 | 0.00 | 0.00 | 0.00 | 45 | 1012.0 |
| 20260504040016 | 50 | 70 | 1.0 | 3.0 | 0.00 | 0.00 | 0.00 | 44 | 1012.0 |
| 20260504035516 | 50 | 198 | 1.0 | 3.0 | 0.00 | 0.00 | 0.00 | 45 | 1011.0 |
| 20260504035017 | 50 | 316 | 0.0 | 2.0 | 0.00 | 0.00 | 0.00 | 44 | 1011.0 |
| 20260504034517 | 50 | 309 | 0.0 | 2.0 | 0.00 | 0.00 | 0.00 | 43 | 1012.0 |
| 20260504034016 | 50 | 2 | 1.0 | 2.0 | 0.00 | 0.00 | 0.00 | 44 | 1012.0 |
| 20260504033517 | 50 | 179 | 2.0 | 2.0 | 0.00 | 0.00 | 0.00 | 43 | 1012.0 |
| 20260504033016 | 50 | 68 | 0.0 | 3.0 | 0.00 | 0.00 | 0.00 | 43 | 1012.0 |
| 20260504032516 | 50 | 109 | 0.0 | 2.0 | 0.00 | 0.00 | 0.00 | 43 | 1012.0 |
| 20260504032016 | 50 | 147 | 0.0 | 4.0 | 0.00 | 0.00 | 0.00 | 42 | 1012.0 |
| 20260504031517 | 50 | 25 | 0.0 | 2.0 | 0.00 | 0.00 | 0.00 | 42 | 1012.0 |
| 20260504031018 | 50 | 62 | 0.0 | 3.0 | 0.00 | 0.00 | 0.00 | 42 | 1011.0 |
| 20260504030516 | 51 | 147 | 0.0 | 2.0 | 0.00 | 0.00 | 0.00 | 41 | 1012.0 |
| 20260504030016 | 51 | 168 | 0.0 | 2.0 | 0.00 | 0.00 | 0.00 | 41 | 1011.0 |
| 20260504025517 | 51 | 259 | 1.0 | 3.0 | 0.00 | 0.00 | 0.00 | 40 | 1011.0 |
| 20260504025017 | 51 | 127 | 2.0 | 4.0 | 0.00 | 0.00 | 0.00 | 41 | 1011.0 |
| 20260504024516 | 51 | 189 | 2.0 | 2.0 | 0.00 | 0.00 | 0.00 | 40 | 1012.0 |
| 20260504023527 | 51 | 139 | 0.0 | 2.0 | 0.00 | 0.00 | 0.00 | 40 | 1012.0 |
| 20260504023016 | 51 | 129 | 0.0 | 2.0 | 0.00 | 0.00 | 0.00 | 40 | 1011.0 |
| 20260504022516 | 51 | 234 | 0.0 | 2.0 | 0.00 | 0.00 | 0.00 | 40 | 1012.0 |
| 20260504022016 | 51 | 201 | 0.0 | 2.0 | 0.00 | 0.00 | 0.00 | 39 | 1012.0 |
| 20260504021516 | 51 | 244 | 0.0 | 2.0 | 0.00 | 0.00 | 0.00 | 39 | 1012.0 |
| 20260504021016 | 52 | 128 | 2.0 | 3.0 | 0.00 | 0.00 | 0.00 | 39 | 1011.0 |
| 20260504020517 | 52 | 224 | 0.0 | 2.0 | 0.00 | 0.00 | 0.00 | 38 | 1011.0 |
| 20260504020017 | 52 | 154 | 0.0 | 3.0 | 0.00 | 0.00 | 0.00 | 38 | 1012.0 |
| 20260504015516 | 52 | 168 | 2.0 | 3.0 | 0.00 | 0.00 | 0.00 | 38 | 1011.0 |
| 20260504015016 | 52 | 166 | 1.0 | 3.0 | 0.00 | 0.00 | 0.00 | 38 | 1012.0 |
| 20260504014516 | 52 | 142 | 0.0 | 3.0 | 0.00 | 0.00 | 0.00 | 37 | 1011.0 |
| 20260504014016 | 52 | 130 | 0.0 | 2.0 | 0.00 | 0.00 | 0.00 | 37 | 1011.0 |
| 20260504013518 | 52 | 166 | 0.0 | 2.0 | 0.00 | 0.00 | 0.00 | 37 | 1011.0 |
| 20260504013016 | 52 | 129 | 0.0 | 2.0 | 0.00 | 0.00 | 0.00 | 37 | 1011.0 |
| 20260504012517 | 52 | 216 | 0.0 | 2.0 | 0.00 | 0.00 | 0.00 | 37 | 1011.0 |
| 20260504012016 | 52 | 115 | 0.0 | 2.0 | 0.00 | 0.00 | 0.00 | 37 | 1011.0 |
| 20260504011517 | 52 | 152 | 1.0 | 1.0 | 0.00 | 0.00 | 0.00 | 37 | 1011.0 |
| 20260504011023 | 52 | 271 | 1.0 | 2.0 | 0.00 | 0.00 | 0.00 | 36 | 1011.0 |
| 20260504010517 | 52 | 261 | 0.0 | 2.0 | 0.00 | 0.00 | 0.00 | 36 | 1010.0 |
| 20260504010018 | 53 | 253 | 0.0 | 1.0 | 0.00 | 0.00 | 0.00 | 36 | 1011.0 |
| 20260504005516 | 53 | 304 | 0.0 | 1.0 | 0.00 | 0.00 | 0.00 | 36 | 1011.0 |
| 20260504005016 | 53 | 179 | 1.0 | 1.0 | 0.00 | 0.00 | 0.00 | 35 | 1011.0 |
| 20260504004516 | 53 | 44 | 0.0 | 1.0 | 0.00 | 0.00 | 0.00 | 35 | 1010.0 |
| 20260504004016 | 53 | 299 | 0.0 | 1.0 | 0.00 | 0.00 | 0.00 | 34 | 1010.0 |
| 20260504003517 | 54 | 126 | 0.0 | 1.0 | 0.00 | 0.00 | 0.00 | 34 | 1010.0 |
| 20260504003017 | 54 | 163 | 1.0 | 2.0 | 0.00 | 0.00 | 0.00 | 33 | 1010.0 |
| 20260504002516 | 54 | 156 | 2.0 | 2.0 | 0.00 | 0.00 | 0.00 | 33 | 1010.0 |
| 20260504002016 | 55 | 278 | 0.0 | 2.0 | 0.00 | 0.00 | 0.00 | 33 | 1010.0 |
| 20260504001517 | 55 | 333 | 1.0 | 3.0 | 0.00 | 0.00 | 0.00 | 32 | 1010.0 |
| 20260504001016 | 55 | 322 | 0.0 | 1.0 | 0.00 | 0.00 | 0.00 | 31 | 1010.0 |
| 20260504000517 | 55 | 110 | 0.0 | 3.0 | 0.00 | 0.00 | 0.00 | 31 | 1010.0 |
| 20260504000018 | 56 | 129 | 0.0 | 3.0 | 0.00 | 0.00 | 0.00 | 30 | 1010.0 |
| 20260503235518 | 56 | 289 | 1.0 | 3.0 | 0.00 | 0.00 | 0.00 | 30 | 1009.0 |
| 20260503235016 | 56 | 58 | 0.0 | 3.0 | 0.00 | 0.00 | 0.00 | 30 | 1010.0 |
| 20260503234517 | 57 | 62 | 2.0 | 5.0 | 0.00 | 0.00 | 0.00 | 29 | 1009.0 |
| 20260503234016 | 57 | 180 | 1.0 | 2.0 | 0.00 | 0.00 | 0.00 | 30 | 1009.0 |
| 20260503233516 | 57 | 284 | 0.0 | 2.0 | 0.00 | 0.00 | 0.00 | 29 | 1010.0 |
| 20260503233016 | 57 | 28 | 4.0 | 6.0 | 0.00 | 0.00 | 0.00 | 29 | 1009.0 |
| 20260503232516 | 57 | 250 | 1.0 | 3.0 | 0.00 | 0.00 | 0.00 | 29 | 1009.0 |
| 20260503232017 | 58 | 113 | 2.0 | 3.0 | 0.00 | 0.00 | 0.00 | 28 | 1009.0 |
| 20260503231516 | 58 | 68 | 1.0 | 4.0 | 0.00 | 0.00 | 0.00 | 28 | 1009.0 |
| 20260503231016 | 58 | 184 | 0.0 | 3.0 | 0.00 | 0.00 | 0.00 | 27 | 1009.0 |
| 20260503230516 | 58 | 160 | 0.0 | 2.0 | 0.00 | 0.00 | 0.00 | 27 | 1009.0 |
| 20260503230016 | 58 | 306 | 1.0 | 4.0 | 0.00 | 0.00 | 0.00 | 27 | 1009.0 |
| 20260503225516 | 58 | 262 | 5.0 | 5.0 | 0.00 | 0.00 | 0.00 | 26 | 1009.0 |
| 20260503225016 | 58 | 61 | 5.0 | 5.0 | 0.00 | 0.00 | 0.00 | 27 | 1009.0 |
| 20260503224516 | 58 | 328 | 1.0 | 5.0 | 0.00 | 0.00 | 0.00 | 27 | 1009.0 |
| 20260503224016 | 58 | 164 | 2.0 | 6.0 | 0.00 | 0.00 | 0.00 | 26 | 1009.0 |
| 20260503223517 | 58 | 4 | 2.0 | 5.0 | 0.00 | 0.00 | 0.00 | 27 | 1009.0 |
| 20260503223016 | 58 | 260 | 1.0 | 4.0 | 0.00 | 0.00 | 0.00 | 27 | 1009.0 |
| 20260503222517 | 57 | 184 | 0.0 | 5.0 | 0.00 | 0.00 | 0.00 | 27 | 1009.0 |
| 20260503222017 | 58 | 262 | 3.0 | 5.0 | 0.00 | 0.00 | 0.00 | 26 | 1009.0 |
| 20260503221516 | 58 | 206 | 3.0 | 3.0 | 0.00 | 0.00 | 0.00 | 26 | 1009.0 |
| 20260503221016 | 58 | 147 | 2.0 | 5.0 | 0.00 | 0.00 | 0.00 | 26 | 1009.0 |
| 20260503220517 | 59 | 28 | 2.0 | 6.0 | 0.00 | 0.00 | 0.00 | 25 | 1009.0 |
| 20260503220016 | 59 | 256 | 4.0 | 7.0 | 0.00 | 0.00 | 0.00 | 26 | 1009.0 |
| 20260503215517 | 59 | 12 | 1.0 | 2.0 | 0.00 | 0.00 | 0.00 | 27 | 1008.0 |
| 20260503215017 | 59 | 331 | 2.0 | 6.0 | 0.00 | 0.00 | 0.00 | 26 | 1009.0 |
| 20260503214516 | 59 | 19 | 1.0 | 4.0 | 0.00 | 0.00 | 0.00 | 27 | 1009.0 |
| 20260503214016 | 60 | 349 | 2.0 | 4.0 | 0.00 | 0.00 | 0.00 | 25 | 1009.0 |
| 20260503213516 | 60 | 266 | 5.0 | 6.0 | 0.00 | 0.00 | 0.00 | 25 | 1009.0 |
| 20260503213016 | 59 | 234 | 4.0 | 9.0 | 0.00 | 0.00 | 0.00 | 25 | 1009.0 |
| 20260503212516 | 59 | 319 | 6.0 | 12.0 | 0.00 | 0.00 | 0.00 | 25 | 1009.0 |
| 20260503212016 | 59 | 25 | 4.0 | 7.0 | 0.00 | 0.00 | 0.00 | 26 | 1009.0 |
| 20260503211516 | 60 | 219 | 4.0 | 8.0 | 0.00 | 0.00 | 0.00 | 25 | 1009.0 |
| 20260503211017 | 59 | 169 | 2.0 | 6.0 | 0.00 | 0.00 | 0.00 | 25 | 1009.0 |
| 20260503210517 | 59 | 95 | 0.0 | 4.0 | 0.00 | 0.00 | 0.00 | 25 | 1009.0 |
| 20260503210016 | 57 | 70 | 4.0 | 6.0 | 0.00 | 0.00 | 0.00 | 26 | 1009.0 |
| 20260503205516 | 58 | 28 | 8.0 | 10.0 | 0.00 | 0.00 | 0.00 | 25 | 1009.0 |
| 20260503205017 | 58 | 8 | 2.0 | 11.0 | 0.00 | 0.00 | 0.00 | 25 | 1009.0 |
| 20260503204516 | 57 | 21 | 1.0 | 7.0 | 0.00 | 0.00 | 0.00 | 26 | 1009.0 |
| 20260503204016 | 57 | 87 | 3.0 | 12.0 | 0.00 | 0.00 | 0.00 | 26 | 1009.0 |
| 20260503203516 | 59 | 354 | 6.0 | 13.0 | 0.00 | 0.00 | 0.00 | 25 | 1009.0 |
| 20260503203017 | 59 | 307 | 3.0 | 5.0 | 0.00 | 0.00 | 0.00 | 26 | 1009.0 |
| 20260503202516 | 59 | 249 | 2.0 | 3.0 | 0.00 | 0.00 | 0.00 | 26 | 1009.0 |
| 20260503202017 | 59 | 286 | 2.0 | 10.0 | 0.00 | 0.00 | 0.00 | 24 | 1009.0 |
| 20260503201517 | 59 | 339 | 3.0 | 3.0 | 0.00 | 0.00 | 0.00 | 28 | 1009.0 |
| 20260503201016 | 57 | 11 | 2.0 | 7.0 | 0.00 | 0.00 | 0.00 | 27 | 1009.0 |
| 20260503200516 | 57 | 0 | 2.0 | 7.0 | 0.00 | 0.00 | 0.00 | 27 | 1009.0 |
| 20260503200018 | 57 | 267 | 2.0 | 9.0 | 0.00 | 0.00 | 0.00 | 27 | 1009.0 |
| 20260503195517 | 57 | 145 | 2.0 | 9.0 | 0.00 | 0.00 | 0.00 | 27 | 1009.0 |
| 20260503195016 | 55 | 199 | 4.0 | 11.0 | 0.00 | 0.00 | 0.00 | 28 | 1009.0 |
| 20260503194516 | 55 | 37 | 3.0 | 9.0 | 0.00 | 0.00 | 0.00 | 27 | 1009.0 |
| 20260503194017 | 58 | 352 | 5.0 | 17.0 | 0.00 | 0.00 | 0.00 | 26 | 1009.0 |
| 20260503193516 | 60 | 328 | 3.0 | 9.0 | 0.00 | 0.00 | 0.00 | 25 | 1009.0 |
| 20260503193017 | 59 | 235 | 1.0 | 4.0 | 0.00 | 0.00 | 0.00 | 27 | 1009.0 |
| 20260503192517 | 59 | 108 | 2.0 | 5.0 | 0.00 | 0.00 | 0.00 | 28 | 1009.0 |
| 20260503192019 | 58 | 280 | 1.0 | 7.0 | 0.00 | 0.00 | 0.00 | 27 | 1009.0 |
| 20260503191518 | 57 | 295 | 3.0 | 8.0 | 0.00 | 0.00 | 0.00 | 27 | 1009.0 |
| 20260503191017 | 57 | 13 | 6.0 | 7.0 | 0.00 | 0.00 | 0.00 | 28 | 1009.0 |
| 20260503190516 | 57 | 50 | 7.0 | 9.0 | 0.00 | 0.00 | 0.00 | 28 | 1009.0 |
| 20260503190017 | 58 | 29 | 10.0 | 13.0 | 0.00 | 0.00 | 0.00 | 27 | 1010.0 |
| 20260503185517 | 58 | 0 | 4.0 | 6.0 | 0.00 | 0.00 | 0.00 | 27 | 1010.0 |
| 20260503185017 | 57 | 341 | 3.0 | 10.0 | 0.00 | 0.00 | 0.00 | 28 | 1010.0 |
| 20260503184516 | 56 | 260 | 4.0 | 9.0 | 0.00 | 0.00 | 0.00 | 29 | 1010.0 |
| 20260503184016 | 56 | 24 | 8.0 | 10.0 | 0.00 | 0.00 | 0.00 | 30 | 1010.0 |
| 20260503183516 | 56 | 342 | 7.0 | 13.0 | 0.00 | 0.00 | 0.00 | 28 | 1010.0 |
| 20260503183016 | 55 | 4 | 4.0 | 5.0 | 0.00 | 0.00 | 0.00 | 31 | 1010.0 |
| 20260503182516 | 55 | 65 | 5.0 | 9.0 | 0.00 | 0.00 | 0.00 | 31 | 1010.0 |
| 20260503182017 | 54 | 203 | 1.0 | 6.0 | 0.00 | 0.00 | 0.00 | 32 | 1010.0 |
| 20260503181516 | 53 | 359 | 7.0 | 17.0 | 0.00 | 0.00 | 0.00 | 31 | 1010.0 |
| 20260503181016 | 54 | 76 | 2.0 | 8.0 | 0.00 | 0.00 | 0.00 | 31 | 1010.0 |
| 20260503180516 | 54 | 295 | 3.0 | 15.0 | 0.00 | 0.00 | 0.00 | 31 | 1010.0 |
| 20260503180017 | 54 | 214 | 2.0 | 9.0 | 0.00 | 0.00 | 0.00 | 31 | 1010.0 |
| 20260503175516 | 53 | 39 | 5.0 | 11.0 | 0.00 | 0.00 | 0.00 | 32 | 1010.0 |
| 20260503175016 | 53 | 51 | 4.0 | 7.0 | 0.00 | 0.00 | 0.00 | 34 | 1010.0 |
| 20260503174517 | 54 | 5 | 3.0 | 9.0 | 0.00 | 0.00 | 0.00 | 32 | 1010.0 |
| 20260503174016 | 55 | 126 | 5.0 | 5.0 | 0.00 | 0.00 | 0.00 | 31 | 1010.0 |
| 20260503173516 | 55 | 316 | 3.0 | 9.0 | 0.00 | 0.00 | 0.00 | 33 | 1010.0 |
| 20260503173017 | 53 | 25 | 0.0 | 4.0 | 0.00 | 0.00 | 0.00 | 34 | 1010.0 |
| 20260503172517 | 53 | 23 | 7.0 | 10.0 | 0.00 | 0.00 | 0.00 | 35 | 1011.0 |
| 20260503172016 | 52 | 55 | 3.0 | 9.0 | 0.00 | 0.00 | 0.00 | 35 | 1011.0 |
| 20260503171517 | 52 | 44 | 13.0 | 17.0 | 0.00 | 0.00 | 0.00 | 35 | 1010.0 |
| 20260503171016 | 52 | 345 | 5.0 | 11.0 | 0.00 | 0.00 | 0.00 | 36 | 1011.0 |
| 20260503170516 | 51 | 343 | 3.0 | 7.0 | 0.00 | 0.00 | 0.00 | 37 | 1011.0 |